Flag for U.S.A. Weather past 2 weeks in Cape Coral, Florida, U.S.A.

Now
67 °F

Clear.


Feels Like: 67 °F
Forecast: 58 / 80 °F
Wind: 5 mph from West

Location: Page Field

Current Time: Mar 30, 2015 at 9:21:22 PM

Latest Report: Mar 30, 2015 at 8:53 PM


Visibility: 10 mi

Pressure: 30.19 "Hg

Humidity: 66%

Dew point: 55 °F

Location of Cape CoralLocation

Historic Weather in Cape Coral — Graph

°F

Cape Coral temperature yesterday

Maximum temperature yesterday: 76 °F (at 3:53 PM)
Minimum temperature yesterday: 54 °F (at 5:53 AM)
Average temperature yesterday: 64 °F

Past Weeks' High & Low Weather Summary

 TemperatureHumidityPressure
High88 °F (Mar 16, 3:53 PM)100% (Mar 22, 7:53 AM)30.34 "Hg (Mar 22, 7:53 AM)
Low51 °F (Mar 30, 4:53 AM)25% (Mar 30, 2:53 PM)29.88 "Hg (Mar 27, 8:53 AM)
Average72 °F73%30.06 "Hg
* Reported Mar 15 7:53 PM — Mar 30 7:53 PM, Cape Coral, Weather by CustomWeather, © 2015

Note: Actual official high and low records may vary slightly from our data, if they occured in-between our weather recording intervals... More about our weather records

Advertising

Cape Coral weather history for previous 24 hours

 ConditionsComfort  
Time TempWeatherWind HumidityBarometerVisibility
7:53 PM
Mon, Mar 30
70 °FSunny.8 mph57%30.17 "Hg10 mi
6:53 PM73 °FSunny.9 mph46%30.17 "Hg10 mi
5:53 PM76 °FSunny.9 mph37%30.18 "Hg10 mi
4:53 PM79 °FSunny.13 mph28%30.18 "Hg10 mi
3:53 PM78 °FSunny.12 mph28%30.21 "Hg8 mi
2:53 PM78 °FSunny.10 mph25%30.23 "Hg10 mi
1:53 PM77 °FSunny.7 mph26%30.25 "Hg10 mi
12:53 PM74 °FSunny.6 mph31%30.27 "Hg10 mi
11:53 AM73 °FSunny.No wind34%30.27 "Hg10 mi
10:53 AM70 °FSunny.5 mph44%30.28 "Hg10 mi
9:53 AM65 °FSunny.6 mph59%30.27 "Hg10 mi
8:53 AM57 °FSunny.5 mph69%30.27 "Hg10 mi
7:53 AM51 °FClear.No wind83%30.26 "Hg10 mi
6:53 AM51 °FClear.3 mph77%30.24 "Hg10 mi
5:53 AM51 °FClear.5 mph77%30.24 "Hg10 mi
4:53 AM51 °FClear.3 mph80%30.24 "Hg10 mi
3:53 AM52 °FClear.6 mph75%30.25 "Hg10 mi
2:53 AM53 °FClear.5 mph69%30.27 "Hg10 mi
1:53 AM53 °FClear.3 mph69%30.28 "Hg10 mi
12:53 AM56 °FClear.7 mph62%30.29 "Hg10 mi
11:53 PM
Sun, Mar 29
58 °FClear.10 mph58%30.30 "Hg10 mi
10:53 PM60 °FClear.10 mph56%30.31 "Hg10 mi
9:53 PM64 °FClear.13 mph47%30.30 "Hg10 mi
Weather by CustomWeather, © 2015

See weather overviewHow to use our weather pages